Location: Ch�teau-Arnoux
(44.0814°N, 6.0027°E)
Time: 13:33:56
(UTC+00:00)

Cosmos 2369 - Pass Details

Date: 15 November 2019
Orbit: 838 x 858 km, 71.0° (Epoch: 12 December)

Event Time Altitude Azimuth Distance (km) Brightness Sun altitude
Exits shadow 04:11:05 40° 208° (SSW) 1,240 4.3 -25.0°
Drops below altitude 10° 04:15:04 10° 178° (S) 2,483 6.2 -24.3°
Sets 04:17:35 0° 173° (S) 3,415 7.0 -23.9°
